This is the latest recevied weather packets stored in our database for station/object KN6KDD. If no packets are shown the sender has not sent any weather packets the latest 1 day(s).
| Time | Temp. | Humidity | Pressure | Rain* | Wind** | Luminosity | Snow |
|---|---|---|---|---|---|---|---|
| 1778027878 | 15.56° C | 81% | 1354.8 hPa | 0 mm | 0.89 m/s, 330° | 166 W/m² | - |
| 1778027574 | 15.56° C | 81% | 1354.9 hPa | 0 mm | 0.45 m/s, 30° | 165 W/m² | - |
| 1778027271 | 15.56° C | 79% | 1354.7 hPa | 0 mm | 2.68 m/s, 271° | 149 W/m² | - |
| 1778026967 | 15.56° C | 80% | 1354.7 hPa | 0 mm | 1.34 m/s, 263° | 139 W/m² | - |
| 1778026663 | 15.56° C | 80% | 1354.5 hPa | 0 mm | 0.89 m/s, 353° | 165 W/m² | - |
| 1778026361 | 16.11° C | 81% | 1354.4 hPa | 0 mm | 1.34 m/s, 316° | 182 W/m² | - |
| 1778026057 | 16.11° C | 82% | 1354.4 hPa | 0 mm | 0 m/s | 206 W/m² | - |
| 1778025755 | 16.11° C | 81% | 1354.4 hPa | 0 mm | 0.45 m/s, 153° | 214 W/m² | - |
| 1778025452 | 16.11° C | 81% | 1354.2 hPa | 0 mm | 0.89 m/s, 139° | 196 W/m² | - |
| 1778025150 | 16.11° C | 81% | 1354.7 hPa | 0 mm | 0.89 m/s, 230° | 179 W/m² | - |
| 1778024846 | 15.56° C | 80% | 1354.4 hPa | 0 mm | 0 m/s | 197 W/m² | - |
| 1778024544 | 16.11° C | 81% | 1354.4 hPa | 0 mm | 0.89 m/s, 353° | 222 W/m² | - |
| 1778024240 | 16.11° C | 81% | 1354.4 hPa | 0 mm | 1.79 m/s, 338° | 234 W/m² | - |
| 1778023938 | 16.11° C | 81% | 1354.4 hPa | 0 mm | 1.34 m/s, 40° | 222 W/m² | - |
| 1778023635 | 16.11° C | 81% | 1354.7 hPa | 0 mm | 0.89 m/s, 191° | 207 W/m² | - |
| 1778023333 | 16.11° C | 80% | 1354.7 hPa | 0 mm | 0.45 m/s, 2° | 203 W/m² | - |
| 1778023029 | 15.56° C | 78% | 1354.8 hPa | 0 mm | 2.24 m/s, 291° | 183 W/m² | - |
| 1778022728 | 15.56° C | 78% | 1354.5 hPa | 0 mm | 0.89 m/s, 333° | 181 W/m² | - |
| 1778022426 | 16.11° C | 79% | 1354.8 hPa | 0 mm | 2.24 m/s, 308° | 189 W/m² | - |
| 1778022122 | 16.11° C | 81% | 1354.9 hPa | 0 mm | 1.79 m/s, 322° | 201 W/m² | - |
| 1778021819 | 16.11° C | 79% | 1354.8 hPa | 0 mm | 0.89 m/s, 291° | 173 W/m² | - |
| 1778021515 | 16.11° C | 81% | 1354.8 hPa | 0 mm | 0.89 m/s, 292° | 170 W/m² | - |
| 1778021211 | 16.11° C | 79% | 1354.7 hPa | 0 mm | 2.68 m/s, 314° | 192 W/m² | - |
| 1778020909 | 16.11° C | 78% | 1354.5 hPa | 0 mm | 2.68 m/s, 311° | 233 W/m² | - |
| 1778020606 | 16.11° C | 79% | 1354.9 hPa | 0 mm | 1.34 m/s, 318° | 264 W/m² | - |
* Rain latest hour (hover to see other rain measurements)
** Current wind speed in m/s (hover to see current wind gust speed)